Regional Weather Roundup
Issued by NWS

Home | Current Version | Previous Version | Text Only | Print | Product List | Glossary On
Versions: 1 2 3 4 5 6 7 8 9 10 11 12 13 14 15 16 17 18 19 20 21 22 23 24 25 26 27 28 29 30 31 32 33 34 35 36 37 38 39 40 41 42 43 44 45 46 47 48 49 50
000
ASUS46 KSTO 271215
RWRCA

NORTHERN AND CENTRAL CA REGIONAL WEATHER ROUNDUP
NATIONAL WEATHER SERVICE SACRAMENTO CA
500 AM PDT MON MAR 27 2017

NOTE: FAIR INDICATES FEW OR NO CLOUDS BELOW 12,000 FEET WITH NO
SIGNIFICANT WEATHER AND/OR OBSTRUCTIONS TO VISIBILITY.

CAZ001-003-271300-
NORTHWEST AREA

CITY           SKY/WX    TMP DP  RH WIND       PRES   REMARKS
CRESCENT CITY  CLOUDY    47  44  90 S3        30.14R
UKIAH          CLOUDY    47  45  93 N5        30.15R
$$

CAZ006-505>513-271300-
BAY AREA

CITY           SKY/WX    TMP DP  RH WIND       PRES   REMARKS
SANTA ROSA     CLEAR     45  43  93 CALM      30.13S
SAN RAFAEL     N/A       50  MM  MM MISG
NAPA           CLEAR     50  46  86 W9        30.15R
CONCORD        PTCLDY    49  46  90 W6        30.15R
OAKLAND CITY   N/A      MM  MM  MM MISG
OAKLAND        PTCLDY    54  48  80 W12       30.16R
SAN FRAN CITY  N/A       51  MM  80 MISG
SAN FRAN ARPT  MOCLDY    53  47  79 NW8       30.16R
LIVERMORE      PTCLDY    47  44  90 W8        30.14R
HAYWARD        CLEAR     53  43  68 NW6       30.15R
REDWOOD CITY   N/A       50  MM  88 MISG
MOFFETT ARPT   CLEAR     51  46  83 W5        30.16R
SAN JOSE ARPT  CLEAR     50  46  86 SW6       30.15R
$$
CAZ034-037-514>518-271300-
CENTRAL COAST

CITY           SKY/WX    TMP DP  RH WIND       PRES   REMARKS
WATSONVILLE    CLEAR     46  46 100 NW5       30.15R
SALINAS        CLEAR     51  49  92 NW3       30.14R
MONTEREY       CLEAR     53  48  83 W7        30.15S
SAN LUIS OBISP PTCLDY    55  52  89 NW7       30.07F
SANTA MARIA    CLOUDY    53  53 100 CALM      30.08F FOG
$$
CAZ015-016-271300-
NORTHERN SACRAMENTO VALLEY

CITY           SKY/WX    TMP DP  RH WIND       PRES   REMARKS
REDDING        PTCLDY    42  42 100 CALM      30.09R
RED BLUFF      FOG       40  40 100 CALM      30.11R VSB 3/4
OROVILLE       PTCLDY    51  49  92 CALM      30.10S
$$
CAZ016>018-271300-
SOUTHERN SACRAMENTO VALLEY

CITY           SKY/WX    TMP DP  RH WIND       PRES   REMARKS
AUBURN         CLOUDY    46  46 100 S3        30.09R
BEALE AFB      MOCLDY    48  46  93 CALM      30.09R
LINCOLN        PTSUNNY   46  46 100 S5        30.10R
MARYSVILLE     CLOUDY    48  47  96 N3        30.11R FOG
SAC INTL ARPT  PTCLDY    46  45  96 W6        30.10R
MATHER AIRPORT CLEAR     45  45 100 SE5       30.10
DOWNTOWN SAC   N/A       48  MM  MM MISG
SAC EXEC ARPT  PTCLDY    46  46 100 CALM      30.11R
VACAVILLE      CLEAR     50  42  74 W14       30.13R
TRAVIS AFB     CLEAR     49  46  90 W18       30.10R
$$
CAZ019>021-271300-
SAN JOAQUIN VALLEY

CITY           SKY/WX    TMP DP  RH WIND       PRES   REMARKS
STOCKTON       CLEAR     49  47  93 W9        30.11R
MODESTO        CLEAR     52  47  83 N7        30.10R
MERCED         CLEAR     50  46  86 N8        30.09S
LEMOORE        MOCLDY    51  50  96 N9        30.09R
FRESNO         CLOUDY    54  51  90 NE3       30.09R
HANFORD        MOCLDY    52  51  97 N3        30.08S
PORTERVILLE    LGT RAIN  52  50  93 N9        30.07S
BAKERSFIELD    CLOUDY    56  48  74 NW12      30.04S
$$
CAZ011-012-071-271300-
NORTHERN MOUNTAINS

CITY           SKY/WX    TMP DP  RH WIND       PRES   REMARKS
YREKA          PTCLDY    31  30  96 SW3       30.06R
MOUNT SHASTA   FOG       31  30  96 CALM      30.04R VSB 1
ALTURAS        PTCLDY    33  31  92 W7        30.02R WCI  27
$$
CAZ011-012-071-271300-
SIERRA NEVADA MTNS

CITY           SKY/WX    TMP DP  RH WIND       PRES   REMARKS
BLUE CANYON    FOG       33  33 100 SW8       30.05R VSB 3/4 WCI  26
TRUCKEE        CLOUDY    32  30  93 NW3       30.01R
TAHOE VLY ARPT PTCLDY    28  25  88 S7        29.99S WCI  21
MAMMOTH LAKES  CLOUDY    35  21  57 W17G32    29.97S WCI  25
$$




USA.gov is the U.S. government's official web portal to all federal, state and local government web resources and services.